Strait of Georgia - south of Nanaimo: Past 24 Hour Conditions

 

Halibut Bank - 46146

10:00 AM PDT 27 May 2015Buoy position: 49.34N 123.72W
Disclaimer

This table is a summary of hourly weather conditions for the past 24 hours.
Please note that these observations might not always be representative of weather conditions over their associated marine area.

Date / Time
(PDT)
Wind(knots) Wave height(m) Wave period(s) Pressure(kPa) Air tempC) Water tempC)
27 May 2015
10:00 WNW 8 gust 8 0.3 3.0 101.8 16 17
9:00 WNW 10 gust 12 0.2 3.0 101.8 16 17
8:00 WNW 8 gust 10 0.2 3.0 101.8 16 17
7:00 N 2 gust 2 0.1 6.0 101.8 16 17
6:00 NNE 4 gust 4 0.1 6.0 101.8 16 17
5:00 W 4 gust 6 0.1 3.0 101.7 16 17
4:00 SSW 2 gust 2 0.1 2.0 101.7 16 17
3:00 SSW 4 gust 6 0.1 4.0 101.7 16 16
2:00 SSE 4 gust 4 0.1 2.0 101.7 16 16
1:00 ESE 4 gust 6 0.1 2.0 101.7 17 17
0:00 E 4 gust 6 0.1 2.0 101.7 17 17
26 May 2015
23:00 E 6 gust 8 0.1 4.0 101.6 17 17
22:00 E 8 gust 8 0.1 14.0 101.6 17 17
21:00 SE 8 gust 8 0.2 6.0 101.6 17 17
20:00 SSE 10 gust 12 0.1 2.0 101.6 17 18
19:00 SE 10 gust 12 0.2 6.0 101.6 17 17
18:00 SSE 8 gust 10 0.1 4.0 101.6 17 18
17:00 SSE 6 gust 6 0.1 6.0 101.6 16 18
16:00 SSE 4 gust 6 0.2 3.0 101.7 17 18
15:00 W 2 gust 2 0.2 3.0 101.7 17 17
14:00 WNW 4 gust 4 0.3 3.0 101.7 16 17
13:00 WNW 8 gust 8 0.3 3.0 101.8 15 17
12:00 W 10 gust 12 0.4 4.0 101.8 15 16
11:00 W 10 gust 12 0.4 3.0 101.8 15 16
10:00 WNW 4 gust 4 0.1 3.0 101.8 15 16

Zoom-in to make a selection

Map of Pacific - Georgia Basin marine weather areas Tsawwassen Ferry Terminal Sentry Shoal - 46131 Halibut Bank - 46146 La Perouse Bank - 46206 Discovery Island Esquimalt Harbour Kelp Reefs Malahat Race Rocks Lightstation Saturna Island Sheringham Point University of Victoria Victoria Gonzales Victoria Int'l Airport Ballenas Islands Campbell River Airport Comox Airport Entrance Island Fanny Island Nanaimo Airport Sisters Islets Estevan Point Tofino Airport Grief Point Powell River Airport Sechelt Point Atkinson Sand Heads Lightstation Vancouver Harbour Vancouver Int'l Airport West Vancouver Port Alberni Howe Sound - Pam Rocks Squamish Airport
Legend:
buoy Buoy
land station Land Station

Pacific - Georgia Basin Area

Another Region

What we are doing

Date modified: